Regional Weather Roundup
Issued by NWS

Home | Current Version | Previous Version | Graphics & Text | Print | Product List | Glossary On
Versions: 1 2 3 4 5 6 7 8 9 10 11 12 13 14 15 16 17 18 19 20 21 22 23 24 25 26 27 28 29 30 31 32 33 34 35 36 37 38 39 40 41 42 43 44 45 46 47 48 49 50
009
ASUS43 KOAX 222110
RWRNE

WEATHER ROUNDUP FOR NEBRASKA
NATIONAL WEATHER SERVICE OMAHA NE
300 PM CST SUN JAN 22 2017

NOTES: SATELLITE DATA IS BEING USED TO AUGMENT CLOUD COVER ABOVE
       12000 FEET.
       "FAIR" INDICATES FEW OR NO CLOUDS BELOW 12,000 FEET WITH NO
       SIGNIFICANT WEATHER AND/OR OBSTRUCTIONS TO VISIBILITY.

  * THESE STATIONS DO NOT REPORT WEATHER SUCH AS RAIN...SNOW OR FOG.

NEZ001>004-019>022-054>056-222200-
NEBRASKA PANHANDLE

CITY           SKY/WX    TMP DP  RH WIND       PRES   REMARKS
SCOTTSBLUFF    SUNNY     45  18  34 W15G24    29.88S
ALLIANCE       SUNNY     45  23  42 NW13      29.85S
CHADRON        SUNNY     39  27  62 NW13      29.86F WCI  31
KIMBALL        SUNNY     43  20  40 NW17      29.89S
SIDNEY         SUNNY     45  20  36 NW20      29.88S
$$

NEZ057>060-069>072-079>082-222200-
SOUTHWEST NEBRASKA

CITY           SKY/WX    TMP DP  RH WIND       PRES   REMARKS
NORTH PLATTE   SUNNY     50  27  40 W15       29.84F
IMPERIAL       SUNNY     48  24  39 NW15      29.87S
LEXINGTON      SUNNY     49  29  46 NW10      29.84S
MCCOOK         SUNNY     51  31  46 NW15      29.86S
OGALLALA       SUNNY     48  29  47 NW15      29.86S
$$

NEZ005>010-023>029-035>040-094-222200-
NORTH CENTRAL NEBRASKA

CITY           SKY/WX    TMP DP  RH WIND       PRES   REMARKS
VALENTINE      SUNNY     43  25  49 NW15      29.84R
AINSWORTH      SUNNY     44  29  55 NW16      29.83R
BROKEN BOW     SUNNY     48  31  51 NW14      29.82R
O`NEILL        SUNNY     46  29  52 NW9       29.81S
ORD            SUNNY     48  30  49 NW14      29.81R
THEDFORD       SUNNY     49  28  44 NW12      29.84R
$$

NEZ041-046>049-061>064-073>077-083>087-222200-
SOUTH CENTRAL NEBRASKA

CITY           SKY/WX    TMP DP  RH WIND       PRES   REMARKS
GRAND ISLAND   SUNNY     46  30  53 NW13      29.83R
AURORA         SUNNY     44  32  63 N13       29.82S
HASTINGS       SUNNY     46  30  53 N13       29.83S
HEBRON         MOSUNNY   43  33  67 N13       29.83R
HOLDREGE       SUNNY     49  31  49 NW12      29.84R
KEARNEY *      SUNNY     48  30  49 N14G20    29.83R
YORK           SUNNY     41  34  75 N13       29.82S
$$

NEZ011>018-030>034-042>045-222200-
NORTHEAST NEBRASKA

CITY           SKY/WX    TMP DP  RH WIND       PRES   REMARKS
NORFOLK        SUNNY     42  30  62 NW10      29.80S
ALBION         SUNNY     45  -1  15 N8        29.81S
BLAIR          CLOUDY    38  34  85 NW12      29.80R WCI  30
FREMONT        CLOUDY    37  34  87 NW12      29.83R WCI  30
TEKAMAH        CLOUDY    39  34  82 NW13      29.81R WCI  31
WAYNE          MOSUNNY   39  34  84 N8        29.81S WCI  33
$$

NEZ050>053-065>068-078-088>093-222200-
SOUTHEAST NEBRASKA

CITY           SKY/WX    TMP DP  RH WIND       PRES   REMARKS
LINCOLN        MOSUNNY   40  33  76 NW12      29.84R WCI  33
OMAHA EPPLEY   CLOUDY    38  32  79 NW12      29.81R WCI  30
BEATRICE       CLOUDY    38  34  85 NW13G20   29.83R WCI  30
FALLS CITY     CLOUDY    38  33  82 NW15      29.78R WCI  29
NEBRASKA CITY  CLOUDY    37  32  82 N14       29.80R WCI  28
PLATTSMOUTH    CLOUDY    37  32  80 NW12      29.80R WCI  30
$$

NEZ044-045-051>053-067-222200-
OMAHA AREA

CITY           SKY/WX    TMP DP  RH WIND       PRES   REMARKS
OMAHA EPPLEY   CLOUDY    38  32  79 NW12      29.81R WCI  30
BLAIR          CLOUDY    38  34  85 NW12      29.80R WCI  30
FREMONT        CLOUDY    37  34  87 NW12      29.83R WCI  30
MILLARD        CLOUDY    41  35  80 NW8       29.81R
OFFUTT AFB     CLOUDY    38  38  98 NW10      29.81R WCI  31
PLATTSMOUTH    CLOUDY    37  32  80 NW12      29.80R WCI  30
WAHOO          CLOUDY    36  32  85 NW12      29.82R WCI  28
$$




USA.gov is the U.S. government's official web portal to all federal, state and local government web resources and services.